Showing default

ORBCOMM FM 116, 41189

Orbit data source: Space-Track

ORBCOMM FM 116, 41189 is a payload satellite owned by Orbcomm (US) in LEO that was launched on Tue, 22 Dec 2015 UTC via an FALCON 9 launch vehicle from the Air Force Eastern Test Range (AFETR). Payload-class satellites include a variety of spacecraft equipped with specific instruments for various scientific and technological missions. These include communications satellites like Starlink; space stations such as the ISS; scientific satellites like the Hubble; Earth observation satellites from companies like Planet Labs, Umbra, and HawkEye 360; GPS; miniature CubeSats for education and research; and military/defense satellites.

Loading next visibility...
Identifier
41189, 2015-081L
Orbit
LEO
Country
Flag of USUS / ORB
Related business
Manufacturer
SNC Louisville
Mission
Operational Commercial Communications
Bus & Motor
SN-100A, Unknown motor
Mass
172 kg wet, 158 kg dry
Launch date (UTC)
2015-12-22 (10 years ago)
Launch vehicle
FALCON 9
Launch site
Air Force Eastern Test Range (AFETR)
Object type
Payload
Rocket body
Debris
Shape & HBR
Box + 1 Pan + 1 Ant, 10.3 m
Radar Cross Section
2.222 m², Medium (>0.1 m² and < 1m²)

Expand to show TLE details & history
Last TLE update: 21 hours ago

TLE from 21 hours ago
0 ORBCOMM FM 116
1 41189U 15081L   25301.24314162  .00001339  00000-0  32171-3 0  9995
2 41189  47.0024 287.0037 0001398  17.5880 342.5054 14.58516225525070
Epoch: 2025-10-28T05:50Z
TLE epoch observation values (Epoch: 2025-10-28T05:50:07.435Z)
Latitude
-0.00003°
Longitude
162.63926°
Altitude
697.241 km
Speed
7.509 km/s
True Right ascension
19h 08m 00s
True Declination
0° 00' 00"
Sunlit
Object was in daylight at epoch
Visualization orbit readout
Latitude
Unknown
Longitude
Unknown
Altitude
Unknown
Speed
Unknown
Apparent Right ascension
Unknown
Apparent Declination
Unknown
Sunlit
N/A
Visualization observer readout
Local Sidereal Time
21:51:59
Azimuth
Unknown
Elevation
Unknown
Doppler factor
Unknown
Orbital elements
Apogee altitude
700.193 km
Perigee altitude
698.214 km
Semi-major axis
7,077.341 km
Eccentricity
0.00014
Inclination
47.0024°
RAAN
287.0037°
Arg. of periapsis
17.588°
True anomaly
342.50058°
Mean anomaly
342.5054°
Eccentric anomaly
342.50299°
Mean motion
3.64534 °/min
Orbital period
98.76 mins
BSTAR
0.00032171
Loading maneuver chart data...
Computing Atmospheric mass density...
Loading historical data...
Loading historical data...
Loading historical data...
Loading historical data...
Loading historical data...
Loading historical data...
Loading historical data...

Documentation

Showing up to 5 results
|